index,update,raceTime,cpIndex,atCp,wp_frac,percentComplete,value_m,avgspeed_mph,crossTrack_ft,status,checkpoint,checkpointTime,nextCheckPoint,nextCheckpointTime,rptTime,rptTimeDelta_s, rptLat_deg, rptLon_deg, rptSpeed_mph, atCp,nextCpIndex,wpIndex,pose_lat_deg,pose_lon_deg,selspeed_mph,maxspeed_mph,routeDistance_mile,distance_mile,distanceFromStart_mile,maxDistanceFromStart_mile,maxTotalDistanceFromStart_mile,errors,file
0,False,'00:00:00,0,True,0.877474472080791,0,559.406206042523,-2.23693578365991E-12,-7.54242774317937,DNS,Start_DNS,10/15/2022 7:30:00 AM,Cypress creek launch,12/31/1969 7:00:00 PM,10/15/2022 7:30:00 AM,0,30.7844356593278,-82.446676546,0,True,1,6,30.7844356593278,-82.446676546,-2.23693578365991E-12,-2.23693578365991E-12,0,0,0,0,0,,0410
2,False,'00:00:00,0,True,0.877474472080791,0,559.406206042523,-2.23693578365991E-12,-7.54242774317937,DNS,Start_DNS,10/15/2022 7:30:00 AM,Cypress creek launch,12/31/1969 7:00:00 PM,10/12/2022 9:22:02 AM,-252478,33.2169,-97.1871,0.204187672475419,True,1,6,30.7844356593278,-82.446676546,-2.23693578365991E-12,-2.23693578365991E-12,0,0,0,0,0,old Position(2),0410
4,False,'00:00:00,0,True,0.877474472080791,0,559.406206042523,-2.23693578365991E-12,-7.54242774317937,DNS,Start_DNS,10/15/2022 7:30:00 AM,Cypress creek launch,12/31/1969 7:00:00 PM,10/13/2022 7:24:31 PM,-129929,31.4947,-89.4707,56.6685419236446,True,1,6,30.7844356593278,-82.446676546,-2.23693578365991E-12,-2.23693578365991E-12,0,0,0,0,0,old Position(2),0410
6,False,'00:00:00,0,True,0.877474472080791,0,559.406206042523,-2.23693578365991E-12,-7.54242774317937,DNS,Start_DNS,10/15/2022 7:30:00 AM,Cypress creek launch,12/31/1969 7:00:00 PM,10/14/2022 3:07:16 AM,-102164,30.4401,-83.6608,48.425979513266,True,1,6,30.7844356593278,-82.446676546,-2.23693578365991E-12,-2.23693578365991E-12,0,0,0,0,0,old Position(2),0410
8,False,'00:00:00,0,True,0.877474472080791,0,559.406206042523,-2.23693578365991E-12,-7.54242774317937,DNS,Start_DNS,10/15/2022 7:30:00 AM,Cypress creek launch,12/31/1969 7:00:00 PM,10/14/2022 3:13:16 AM,-101804,30.4333,-83.5378,74.0375182722982,True,1,6,30.7844356593278,-82.446676546,-2.23693578365991E-12,-2.23693578365991E-12,0,0,0,0,0,old Position(2),0410
10,False,'00:00:00,0,True,0.877474472080791,0,559.406206042523,-2.23693578365991E-12,-7.54242774317937,DNS,Start_DNS,10/15/2022 7:30:00 AM,Cypress creek launch,12/31/1969 7:00:00 PM,10/14/2022 10:52:03 AM,-74277,30.2953,-82.9835,4.48363200907879,True,1,6,30.7844356593278,-82.446676546,-2.23693578365991E-12,-2.23693578365991E-12,0,0,0,0,0,old Position(2),0410
12,False,'00:00:00,0,True,0.877474472080791,0,559.406206042523,-2.23693578365991E-12,-7.54242774317937,DNS,Start_DNS,10/15/2022 7:30:00 AM,Cypress creek launch,12/31/1969 7:00:00 PM,10/15/2022 7:13:23 AM,-997,30.7846,-82.4467,2.29071620682641,True,1,6,30.7844356593278,-82.446676546,-2.23693578365991E-12,-2.23693578365991E-12,0,0,0,0,0,old Position(2),0410
14,False,'00:00:00,0,True,0.877474472080791,0,559.406206042523,-2.23693578365991E-12,-7.54242774317937,DNS,Start_DNS,10/15/2022 7:30:00 AM,Cypress creek launch,12/31/1969 7:00:00 PM,10/15/2022 7:28:01 AM,-119,30.7845,-82.4465,0.0699197674722251,True,1,6,30.7844356593278,-82.446676546,-2.23693578365991E-12,-2.23693578365991E-12,0,0,0,0,0,old Position(2),0410
16,False,'00:04:02,0.0108631151511759,False,0.309412166809072,0.154204231955445,1135.03218698935,6.55511139432913,48.2948939668246,OUT,Start_OUT,10/15/2022 7:30:00 AM,Cypress creek launch,10/15/2022 12:32:08 PM,10/15/2022 7:34:02 AM,242,30.7843,-82.4517,5.60249573134079,False,1,11,30.7843,-82.4517,6.55511139432913,6.55511139432913,0.357677402063713,0.309780130177487,0,0,0,,0410
18,False,'00:10:21,0.0311418709272622,False,0.756946445885354,0.442065486848335,2209.58387161613,6.53622210890337,23.3674813483506,OUT,Start_OUT,10/15/2022 7:30:00 AM,Cypress creek launch,10/15/2022 12:33:11 PM,10/15/2022 7:40:21 AM,621,30.7796,-82.4604,5.96868979131208,False,1,16,30.7796,-82.4604,6.2927469101411,6.55511139432913,1.02537286346089,0.939041413020222,0,0,0,,0410
20,False,'00:16:34,0.0513547896147877,False,0.930805213122307,0.728992170254645,3280.6469125014,6.52684073412262,16.6178330520039,OUT,Start_OUT,10/15/2022 7:30:00 AM,Cypress creek launch,10/15/2022 12:33:42 PM,10/15/2022 7:46:34 AM,994,30.7778,-82.4677,5.62566167498068,False,1,26,30.7778,-82.4677,6.66437432344733,6.55511139432913,1.69090058213711,1.43927821859063,0,0,0,,0410
22,False,'00:22:17,0.0681202404977502,False,0.441842741756316,0.966981314327571,4169.03196377064,6.47020388190801,-32.9861619393388,OUT,Start_OUT,10/15/2022 7:30:00 AM,Cypress creek launch,10/15/2022 12:36:48 PM,10/15/2022 7:52:17 AM,1337,30.7723,-82.4706,5.0523901327034,False,1,37,30.7723,-82.4706,6.90106557166717,6.55511139432913,2.24291746061011,1.87793070500477,0,0,0,,0410
24,False,'00:28:14,0.0873721854399383,False,0.11952247520536,1.24026677086048,5189.17393393854,6.46337555178599,4.15633088338269,OUT,Start_OUT,10/15/2022 7:30:00 AM,Cypress creek launch,10/15/2022 12:37:10 PM,10/15/2022 7:58:14 AM,1694,30.7692,-82.474,2.36048259590889,False,1,57,30.7692,-82.474,6.21458145813677,6.55511139432913,2.87680429286468,2.17804083307869,0,0,0,,0410
26,False,'00:33:57,0.100730254434219,False,0.530794780232778,1.42988740370886,5897.00510956183,6.31498877695009,-31.2780874343735,OUT,Start_OUT,10/15/2022 7:30:00 AM,Cypress creek launch,10/15/2022 12:45:16 PM,10/15/2022 8:03:57 AM,2037,30.7699,-82.4788,3.76802195217109,False,1,66,30.7699,-82.4788,4.22278237260703,6.55511139432913,3.31663019436448,2.54620002571216,0,0,0,,0410
28,False,'00:40:34,0.122896296890098,False,0.76313943276392,1.74453909476,7071.56229272797,6.34288635365623,-37.2138535886715,OUT,Start_OUT,10/15/2022 7:30:00 AM,Cypress creek launch,10/15/2022 12:43:44 PM,10/15/2022 8:10:34 AM,2434,30.761,-82.4825,6.01988908417379,False,1,74,30.761,-82.4825,6.55691014257775,6.55511139432913,4.04646619161935,3.21362479256806,0,0,0,,0410
30,False,'00:46:25,0.14186939316213,False,0.900667019473074,2.01386623506272,8076.9283411588,6.34830622202053,5.46520466190746,OUT,Start_OUT,10/15/2022 7:30:00 AM,Cypress creek launch,10/15/2022 12:43:27 PM,10/15/2022 8:16:25 AM,2785,30.7566,-82.49,4.91521917915975,False,1,82,30.7566,-82.49,6.48762825950551,6.55511139432913,4.67117169176775,3.75395355071438,0,0,0,,0410
32,False,'00:51:09,0.158592534885548,False,0.944786745948137,2.25125479160975,8963.07147092333,6.3905727736441,-13.4566834579753,OUT,Start_OUT,10/15/2022 7:30:00 AM,Cypress creek launch,10/15/2022 12:41:15 PM,10/15/2022 8:21:09 AM,3069,30.7503,-82.4934,5.91719803066245,False,1,95,30.7503,-82.4934,7.35479044427882,6.55511139432913,5.22179550480246,4.23464068719247,0,0,0,,0410
34,False,'00:57:36,0.179728272231017,False,0.266604620985834,2.55128108230199,10083.0337812927,6.39816810951733,3.11425780700005,OUT,Start_OUT,10/15/2022 7:30:00 AM,Cypress creek launch,10/15/2022 12:40:52 PM,10/15/2022 8:27:36 AM,3456,30.7436,-82.4928,3.78066839574855,False,1,111,30.7436,-82.4928,6.60466322979186,6.55511139432913,5.91770782085757,4.71564666289306,0,0,0,,0410
36,False,'01:03:58,0.200532867386922,False,0.415672809776997,2.84660673912458,11185.4491868335,6.40335774213947,-64.4266758734417,OUT,Start_OUT,10/15/2022 7:30:00 AM,Cypress creek launch,10/15/2022 12:40:36 PM,10/15/2022 8:33:58 AM,3838,30.7355,-82.4944,6.175759240762,False,1,126,30.7355,-82.4944,6.50241098986478,6.55511139432913,6.60271699573924,5.29527430631154,0,0,0,,0410
38,False,'01:10:52,0.221809828857443,False,0.286151912960444,3.14863773633371,12312.894827204,6.37228155940925,-0.00709493585371342,OUT,Start_OUT,10/15/2022 7:30:00 AM,Cypress creek launch,10/15/2022 12:42:07 PM,10/15/2022 8:40:52 AM,4252,30.7298,-82.4967,3.43930156856054,False,1,144,30.7298,-82.4967,5.73306963926885,6.55511139432913,7.30327923747906,5.79002336400902,0,0,0,,0410
40,False,'01:16:16,0.240271136166783,False,0.640448713913306,3.4106999233687,13291.1416727554,6.40140666534354,-18.9200701690692,OUT,Start_OUT,10/15/2022 7:30:00 AM,Cypress creek launch,10/15/2022 12:40:43 PM,10/15/2022 8:46:16 AM,4576,30.723,-82.501,6.72810216367816,False,1,157,30.723,-82.501,6.92262982014742,6.55511139432913,7.91113364620174,6.35230347825837,0,0,0,,0410
42,False,'01:22:34,0.261034777430806,False,0.139495555896015,3.70544423097834,14391.386971116,6.41061455620021,11.8733795072146,OUT,Start_OUT,10/15/2022 7:30:00 AM,Cypress creek launch,10/15/2022 12:40:17 PM,10/15/2022 8:52:34 AM,4954,30.7173,-82.5089,5.03662826975318,False,1,174,30.7173,-82.5089,6.21343212775151,6.55511139432913,8.5947943789976,6.96829015342938,0,0,0,,0410
44,False,'01:28:26,0.272372506672233,False,0.473033524401866,3.86638571097395,14992.1622943528,6.4070435540051,-11.4226486182609,OUT,Start_OUT,10/15/2022 7:30:00 AM,Cypress creek launch,10/15/2022 12:42:47 PM,10/15/2022 8:58:26 AM,5306,30.7159,-82.513,1.51875692826652,False,1,187,30.7159,-82.513,1.68618141896397,6.55511139432913,8.96809885786399,7.25217512803744,0,0,0,,0410
46,False,'01:34:27,0.288679999987406,False,0.0248921879484901,4.09787404988866,15856.2806163715,6.32001487716693,8.59624615991867,OUT,Start_OUT,10/15/2022 7:30:00 AM,Cypress creek launch,10/15/2022 12:46:47 PM,10/15/2022 9:04:27 AM,5667,30.7165,-82.52,5.47365894468413,False,1,202,30.7165,-82.52,6.16863490405687,6.55511139432913,9.5050370898509,7.67474714450048,0,0,0,,0410
48,False,'01:40:23,0.307767995007932,False,0.419839424402252,4.36883220238426,16867.7350385231,6.32314118078049,1.41706973673541,OUT,Start_OUT,10/15/2022 7:30:00 AM,Cypress creek launch,10/15/2022 12:46:39 PM,10/15/2022 9:10:23 AM,6023,30.71,-82.5253,5.91758088945683,False,1,218,30.71,-82.5253,6.44728720972397,6.55511139432913,10.1335257300369,8.22785515906534,0,0,0,,0410
50,False,'01:46:23,0.327354327939422,False,0.554099207199111,4.64686436760504,17905.5959053132,6.33362131469133,2.54565910663683,OUT,Start_OUT,10/15/2022 7:30:00 AM,Cypress creek launch,10/15/2022 12:46:11 PM,10/15/2022 9:16:23 AM,6383,30.7078,-82.5325,4.97965845730162,False,1,233,30.7078,-82.5325,6.40877300956488,6.55511139432913,10.7784225742108,8.70291605347569,0,0,0,,0410
52,False,'01:52:23,0.345874452815663,False,0.194757493899339,4.90976148252244,18886.9594369324,6.31356570901039,6.04087876832105,OUT,Start_OUT,10/15/2022 7:30:00 AM,Cypress creek launch,10/15/2022 12:47:03 PM,10/15/2022 9:22:23 AM,6743,30.7069,-82.5407,5.37779017944768,False,1,248,30.7069,-82.5407,5.94294649262968,6.55511139432913,11.3882136018712,9.20652632493367,0,0,0,,0410
54,False,'01:57:59,0.363427785559452,False,0.793301265729745,5.15893477732282,19817.09358712,6.30445679044426,10.3736990850817,OUT,Start_OUT,10/15/2022 7:30:00 AM,Cypress creek launch,10/15/2022 12:47:27 PM,10/15/2022 9:27:59 AM,7079,30.7024,-82.5476,5.47782753364046,False,1,256,30.7024,-82.5476,6.45441412779135,6.55511139432913,11.966172167714,9.72935246369458,0,0,0,,0410
56,False,'02:04:51,0.38438424376695,False,0.566693766945634,5.45641616248918,20927.5560691049,6.2778138133782,-23.5303008370567,OUT,Start_OUT,10/15/2022 7:30:00 AM,Cypress creek launch,10/15/2022 12:48:34 PM,10/15/2022 9:34:51 AM,7491,30.6962,-82.5519,4.86370192153409,False,1,273,30.6962,-82.5519,5.90993895777796,6.55511139432913,12.6561815640797,10.2402524841379,0,0,0,,0410
58,False,'02:10:51,0.403140353135984,False,0.310923959575089,5.72266312751479,21921.4241910982,6.26965771497187,17.3117367115831,OUT,Start_OUT,10/15/2022 7:30:00 AM,Cypress creek launch,10/15/2022 12:48:55 PM,10/15/2022 9:40:51 AM,7851,30.6896,-82.5572,6.33595229501366,False,1,283,30.6896,-82.5572,6.40242881967077,6.55511139432913,13.2737425839694,10.8020003335729,0,0,0,,0410
60,False,'02:16:44,0.420030028969822,False,0.303056269361045,5.96241567120863,22816.3918025457,6.21928416497203,-54.4627251767757,OUT,Start_OUT,10/15/2022 7:30:00 AM,Cypress creek launch,10/15/2022 12:50:57 PM,10/15/2022 9:46:44 AM,8204,30.6823,-82.5595,4.67408562465883,False,1,288,30.6823,-82.5595,5.12187688034455,6.55511139432913,13.8298496757083,11.3351289050259,0,0,0,,0410
62,False,'02:22:34,0.437082911982243,False,0.470761810550298,6.20448497554365,23720.007604771,6.1825646773899,45.8519487569194,OUT,Start_OUT,10/15/2022 7:30:00 AM,Cypress creek launch,10/15/2022 12:52:26 PM,10/15/2022 9:52:34 AM,8554,30.6765,-82.5619,3.98362695072393,False,1,298,30.6765,-82.5619,5.53194467726189,6.55511139432913,14.3913305040616,11.7869157146565,0,0,0,,0410
64,False,'02:28:59,0.456708475615067,False,0.969606421063706,6.48307402892073,24759.9472685383,6.16982954524825,9.85656963751216,OUT,Start_OUT,10/15/2022 7:30:00 AM,Cypress creek launch,10/15/2022 12:52:56 PM,10/15/2022 9:58:59 AM,8939,30.6712,-82.567,5.71095607884086,False,1,305,30.6712,-82.567,5.97947694642325,6.55511139432913,15.0375190527915,12.3165819414315,0,0,0,,0410
66,False,'02:34:47,0.474354945385705,False,0.35504500127246,6.73356942364291,25695.0166598328,6.1566889451794,33.9222282433113,OUT,Start_OUT,10/15/2022 7:30:00 AM,Cypress creek launch,10/15/2022 12:53:27 PM,10/15/2022 10:04:47 AM,9287,30.6677,-82.5712,5.25136727307324,False,1,318,30.6677,-82.5712,5.86299424612806,6.55511139432913,15.6185442352848,12.6757892912708,0,0,0,,0410
68,False,'02:41:06,0.494582628666935,False,0.809405932290937,7.02070569359973,26766.8620622797,6.17165497001627,2.17162979925284,OUT,Start_OUT,10/15/2022 7:30:00 AM,Cypress creek launch,10/15/2022 12:52:53 PM,10/15/2022 10:11:06 AM,9666,30.6614,-82.5746,5.18870612902181,False,1,327,30.6614,-82.5746,6.32735023976633,6.55511139432913,16.2845580908974,13.2499930986925,0,0,0,,0410
70,False,'02:46:39,0.512118240013703,False,0.285231984104781,7.26962742939712,27696.0571727534,6.17646397064968,55.4778707710805,OUT,Start_OUT,10/15/2022 7:30:00 AM,Cypress creek launch,10/15/2022 12:52:41 PM,10/15/2022 10:16:39 AM,9999,30.6587,-82.5823,5.07159733408911,False,1,336,30.6587,-82.5823,5.85011154852694,6.55511139432913,16.8619331645136,13.7581264738229,0,0,0,,0410
72,False,'02:52:43,0.529509055154151,False,0.748633891107904,7.51649375222364,28617.5796720893,6.13243245867575,-72.280840022225,OUT,Start_OUT,10/15/2022 7:30:00 AM,Cypress creek launch,10/15/2022 12:54:17 PM,10/15/2022 10:22:43 AM,10363,30.6533,-82.588,5.36218718311768,False,1,343,30.6533,-82.588,5.33271237096896,6.55511139432913,17.4345406985994,14.2839901325367,0,0,0,,0410
74,False,'02:59:01,0.549724915097005,False,0.62516188543426,7.80346218737543,29688.798567254,6.15022976696737,0.250045960112781,OUT,Start_OUT,10/15/2022 7:30:00 AM,Cypress creek launch,10/15/2022 12:53:39 PM,10/15/2022 10:29:01 AM,10741,30.6496,-82.5955,4.2112067379189,False,1,353,30.6496,-82.5955,6.18477075226498,6.55511139432913,18.100165260635,14.8047471110401,0,0,0,,0410
76,False,'03:32:06,0.550981834833526,False,0.25229934477973,7.82130443059043,29755.4015302381,6.15022976696737,-24.8758450745855,OUT,Start_OUT,10/15/2022 7:30:00 AM,Cypress creek launch,10/15/2022 1:23:00 PM,10/15/2022 11:02:06 AM,12726,30.6325,-82.6237,37.4677279686789,False,1,354,30.6493,-82.5949,0.0834191216108429,6.55511139432913,18.141550423151,14.8460439705473,0,0,0,Too fast(1),0410
78,False,'03:38:15,0.665866721087923,False,0.740441589644065,9.45211984602221,35843.0407042547,6.13145682443982,-24.6174467207613,OUT,Start_OUT,10/15/2022 7:30:00 AM,Cypress creek launch,10/15/2022 12:55:54 PM,10/15/2022 11:08:15 AM,13095,30.6315,-82.6269,2.42772394958279,False,1,405,30.6315,-82.6269,5.74588946637411,6.55511139432913,21.9242340346205,17.1326678671911,0,0,0,,0410
80,False,'03:43:40,0.683310406489576,False,0.705435988751523,9.69973667346081,36767.3647476731,6.14883430178663,62.5470813804042,OUT,Start_OUT,10/15/2022 7:30:00 AM,Cypress creek launch,10/15/2022 12:55:24 PM,10/15/2022 11:13:40 AM,13420,30.6307,-82.6351,5.95725096072637,False,1,414,30.6307,-82.6351,6.28277202761678,6.55511139432913,22.498582367493,17.6521349127404,0,0,0,,0410
82,False,'03:49:47,0.701455891964776,False,0.897443720342863,9.95731570233256,37728.8764992343,6.12451536840109,27.3038697999099,OUT,Start_OUT,10/15/2022 7:30:00 AM,Cypress creek launch,10/15/2022 12:56:04 PM,10/15/2022 11:19:47 AM,13787,30.6285,-82.6419,5.74509970344848,False,1,423,30.6285,-82.6419,6.11927074375941,6.55511139432913,23.0960380709108,18.1430237843104,0,0,0,,0410
84,False,'03:56:12,0.720618869208068,False,0.717796490833076,10.2293382434415,38744.3041569571,6.10444962039464,-45.882132156706,OUT,Start_OUT,10/15/2022 7:30:00 AM,Cypress creek launch,10/15/2022 12:56:36 PM,10/15/2022 11:26:12 AM,14172,30.6275,-82.6501,5.07547083922552,False,1,432,30.6275,-82.6501,5.93857194735753,6.55511139432913,23.7269955652207,18.704934076948,0,0,0,,0410
86,False,'04:02:12,0.738489721469267,False,0.661357400510217,10.4830187953805,39691.2633597319,6.08652499199175,13.7092163077182,OUT,Start_OUT,10/15/2022 7:30:00 AM,Cypress creek launch,10/15/2022 12:57:04 PM,10/15/2022 11:32:12 AM,14532,30.6282,-82.6559,3.22265349840362,False,1,440,30.6282,-82.6559,6.18641263487747,6.55511139432913,24.315408734049,19.0584238814389,0,0,0,,0410
88,False,'04:08:12,0.756391040111668,False,0.348572805583561,10.7371318240859,40639.8369466241,6.07092976143965,101.677251219703,OUT,Start_OUT,10/15/2022 7:30:00 AM,Cypress creek launch,10/15/2022 12:57:28 PM,10/15/2022 11:38:12 AM,14892,30.624,-82.6617,5.10685510392977,False,1,449,30.624,-82.6617,6.18801689498919,6.55511139432913,24.9048250346611,19.5807910670481,0,0,0,,0410
90,False,'04:13:46,0.771302688146751,False,0.976802589278602,10.9488058421222,41429.9907752705,6.01043391109828,4.90007057583914,OUT,Start_OUT,10/15/2022 7:30:00 AM,Cypress creek launch,10/15/2022 12:58:56 PM,10/15/2022 11:43:46 AM,15226,30.6219,-82.6662,5.39993748354506,False,1,453,30.6219,-82.6662,5.41359457154313,6.55511139432913,25.395803861218,20.0386108841215,0,0,0,,0410
92,False,'04:19:40,0.787480171162227,False,0.0722429516448565,11.1784486571579,42287.2199770641,5.96220793883832,-36.1323727865867,OUT,Start_OUT,10/15/2022 7:30:00 AM,Cypress creek launch,10/15/2022 1:00:05 PM,10/15/2022 11:49:40 AM,15580,30.6172,-82.6723,5.54370902265985,False,1,459,30.6172,-82.6723,5.82100055818698,6.55511139432913,25.9284613923571,20.5421380766884,0,0,0,,0410
94,False,'04:25:39,0.805695428866295,False,0.661890427876515,11.4370181176706,43252.4288916514,5.96656361317244,84.7022067504797,OUT,Start_OUT,10/15/2022 7:30:00 AM,Cypress creek launch,10/15/2022 12:59:59 PM,10/15/2022 11:55:39 AM,15939,30.611,-82.677,5.09256347875199,False,1,466,30.611,-82.677,6.01623323548888,6.55511139432913,26.5282144063723,21.0826665378609,0,0,0,,0410
96,False,'04:32:05,0.824826626180498,False,0.534784220570675,11.7085895359212,44266.1725616228,5.95813627071153,-13.2902614528,OUT,Start_OUT,10/15/2022 7:30:00 AM,Cypress creek launch,10/15/2022 1:00:09 PM,10/15/2022 12:02:05 PM,16325,30.6062,-82.6813,3.52367993397202,False,1,478,30.6062,-82.6813,5.79817007456464,6.55511139432913,27.1581255192055,21.5047601981893,0,0,0,,0410
98,False,'04:38:35,0.844670956255433,False,0.366028722361385,11.9902840255119,45317.7044478867,5.96518708201488,89.0645637082193,OUT,Start_OUT,10/15/2022 7:30:00 AM,Cypress creek launch,10/15/2022 1:00:01 PM,10/15/2022 12:08:35 PM,16715,30.6011,-82.6853,3.54616276976999,False,1,488,30.6011,-82.6853,6.18722269185069,6.55511139432913,27.8115171410489,21.9358945103964,0,0,0,,0410
100,False,'04:43:54,0.859618103575238,False,0.461836418588488,12.2024619634514,46109.7393493475,5.93382462142371,3.10287382361719,OUT,Start_OUT,10/15/2022 7:30:00 AM,Cypress creek launch,10/15/2022 1:00:38 PM,10/15/2022 12:13:54 PM,17034,30.5964,-82.6902,4.10776985014445,False,1,496,30.5964,-82.6902,4.98644189047991,6.55511139432913,28.3036648120632,22.3741007302585,0,0,0,,0410
102,False,'04:50:09,0.879531516181115,False,0.76715202454034,12.4851370942741,47164.9318522103,5.96473006967724,34.3754541130667,OUT,Start_OUT,10/15/2022 7:30:00 AM,Cypress creek launch,10/15/2022 1:00:02 PM,10/15/2022 12:20:09 PM,17409,30.5943,-82.6973,3.35915746796346,False,1,506,30.5943,-82.6973,6.06773419342809,6.55511139432913,28.9593310356069,22.827512243996,0,0,0,,0410
104,False,'04:56:09,0.898570689767371,False,0.682449368534652,12.7554022161179,48173.7992737086,5.99039550541167,13.1756659955439,OUT,Start_OUT,10/15/2022 7:30:00 AM,Cypress creek launch,10/15/2022 12:59:36 PM,10/15/2022 12:26:09 PM,17769,30.5888,-82.7016,5.75548903392542,False,1,516,30.5888,-82.7016,6.35589260045193,6.55511139432913,29.5862121881127,23.3437602100768,0,0,0,,0410
106,False,'05:01:56,0.914749826969305,False,0.0129111263442248,12.9850685126825,49031.116129245,5.95242991300648,17.0545269006845,OUT,Start_OUT,10/15/2022 7:30:00 AM,Cypress creek launch,10/15/2022 1:00:13 PM,10/15/2022 12:31:56 PM,18116,30.5832,-82.706,3.96711041473946,False,1,523,30.5832,-82.706,5.28142566680278,6.55511139432913,30.1189241847626,23.8114810549868,0,0,0,,0410
108,False,'05:07:59,0.932304665637623,False,0.0431355810859086,13.2342631844021,49961.3300769192,5.93358532500212,-11.543238098604,OUT,Start_OUT,10/15/2022 7:30:00 AM,Cypress creek launch,10/15/2022 1:00:31 PM,10/15/2022 12:37:59 PM,18479,30.5763,-82.705,5.60502928929701,False,1,529,30.5763,-82.705,5.61060398544937,6.55511139432913,30.6969323344646,24.3368285337642,0,0,0,,0410
110,False,'05:13:59,0.951956912044277,False,0.17604715786069,13.5132310054336,51002.6836351031,5.97856459744465,-10.6882764499498,OUT,Start_OUT,10/15/2022 7:30:00 AM,Cypress creek launch,10/15/2022 12:59:51 PM,10/15/2022 12:43:59 PM,18839,30.5708,-82.7135,6.40909503567527,False,1,532,30.5708,-82.7135,6.43253830345394,6.55511139432913,31.343999436454,24.9732594395561,0,0,0,,0410
112,False,'05:19:55,0.968360227876099,False,0.231943308942345,13.7460795653695,51871.8794997397,5.93521331825812,-79.5843622906415,OUT,Start_OUT,10/15/2022 7:30:00 AM,Cypress creek launch,10/15/2022 1:00:26 PM,10/15/2022 12:49:55 PM,19195,30.5673,-82.7167,2.75216570565141,False,1,537,30.5673,-82.7167,5.34437561072747,6.55511139432913,31.884092707151,25.3427005804448,0,0,0,,0410
114,False,'05:25:37,0.985279499403431,False,0.291880333864771,13.9862522262323,52768.4153584038,5.92973160882336,-1.49182462690943,OUT,Start_OUT,10/15/2022 7:30:00 AM,Cypress creek launch,10/15/2022 1:00:31 PM,10/15/2022 12:55:37 PM,19537,30.5633,-82.7183,6.18142193168594,False,1,543,30.5633,-82.7183,6.18744868046744,6.55511139432913,32.4411742625326,25.6778742529294,0,0,0,,0410
116,False,'05:31:19,0.99975962968541,True,0.402372511548436,14.191800757908,53535.7034780459,5.85571665576059,82.4506006124298,IN,Cypress creek launch_IN,10/15/2022 1:00:35 PM,136 bridge,10/15/2022 6:42:32 PM,10/15/2022 1:01:19 PM,19879,30.564,-82.7251,2.82313321197792,True,2,550,30.564,-82.7251,3.74541418672901,6.55511139432913,32.9179449962242,26.092766565594,0,0,0,,0410
118,True,'05:38:20,1.01384654126692,False,0.593516096892367,14.3939657603421,54290.361287132,5.87124565504253,-82.674341781362,OUT,Cypress creek launch_OUT,10/15/2022 1:03:37 PM,136 bridge,10/15/2022 6:43:51 PM,10/15/2022 1:08:20 PM,20300,30.5593,-82.7253,4.82311493945336,False,2,558,30.5593,-82.7253,6.18346437929904,6.55511139432913,33.3868676187872,26.4909344869784,0,0,0,,0410
120,False,'05:44:53,1.03150429280282,False,0.147302489590436,14.6474246684661,55236.4931200165,5.82614414003276,20.2194425247519,OUT,Cypress creek launch_OUT,10/15/2022 1:03:37 PM,136 bridge,10/15/2022 6:46:57 PM,10/15/2022 1:14:53 PM,20693,30.5538,-82.7235,4.23075696439672,False,2,568,30.5538,-82.7235,5.15003574024046,6.55511139432913,33.9747666838004,26.9470615326214,0,0,0,,0410
122,False,'05:50:52,1.04993528468571,False,0.752928274648496,14.9119826484999,56224.0564627547,5.85366790066729,-23.0188579846442,OUT,Cypress creek launch_OUT,10/15/2022 1:03:37 PM,136 bridge,10/15/2022 6:45:05 PM,10/15/2022 1:20:52 PM,21052,30.5491,-82.7226,4.78402993510242,False,2,576,30.5491,-82.7226,6.22887259678563,6.55511139432913,34.5884100954874,27.382033692165,0,0,0,,0410